Snowfall_Accumulation
3.2 8.5 11.0 5.5 4.0 3.5 3.7 4.0 3.4 1.9 0.6 1.1 1.2 0.9 0.2 0.1 0.1 0.1 0.4 0.2 0.1 0.1 0.0 0.0 0.0 0.0 0.0 0.0 0.0 0.0 0.0 0.0 0.0 0.0 0.0 0.0 0.1 0.0 0.0 0.0 0.0 0.0 0.0 0.0
7.2 8.9 4.2 1.7 2.2 3.5 4.8 5.7 3.9 1.8 0.8 1.3 1.5 1.0 0.3 0.1 0.2 0.3 0.3 0.2 0.1 0.1 0.0 0.0 0.0 0.0 0.0 0.0 0.0 0.0 0.0 0.0 0.0 0.0 0.0 0.0 0.0 0.0 0.0 0.0 0.0 0.0 0.0 0.0
8.2 4.0 0.9 2.8 4.0 5.7 5.6 5.0 3.6 3.2 2.2 1.7 2.8 2.6 0.8 0.4 0.3 0.5 0.5 0.4 0.2 0.2 0.1 0.1 0.1 0.1 0.1 0.0 0.0 0.0 0.0 0.0 0.0 0.0 0.0 0.0 0.0 0.0 0.0 0.0 0.0 0.0 0.0 0.0
4.6 1.4 1.7 3.7 4.5 5.4 7.1 2.4 2.2 3.1 5.6 6.8 5.4 8.7 2.2 0.9 0.6 0.6 0.6 0.6 0.4 0.3 0.2 0.1 0.2 0.1 0.1 0.1 0.1 0.0 0.0 0.0 0.0 0.0 0.0 0.0 0.0 0.0 0.0 0.0 0.0 0.0 0.0 0.0
5.7 1.7 2.4 4.8 3.3 3.2 3.7 1.3 2.2 3.8 6.5 9.2 5.2 9.6 3.6 1.5 1.9 1.6 0.7 0.7 0.7 0.5 0.3 0.3 0.2 0.2 0.1 0.1 0.1 0.1 0.0 0.0 0.0 0.0 0.0 0.0 0.0 0.0 0.0 0.0 0.0 0.0 0.0 0.0
3.5 0.9 1.5 2.5 1.0 1.8 1.7 2.4 3.7 5.2 10.6 20.1 7.4 8.4 5.6 3.8 4.2 2.8 1.1 0.6 0.7 0.7 0.5 0.4 0.4 0.2 0.1 0.1 0.1 0.1 0.0 0.0 0.0 0.0 0.0 0.0 0.0 0.0 0.0 0.0 0.0 0.0 0.0 0.0
7.3 3.3 1.7 1.2 3.7 3.2 4.8 12.3 28.7 32.0 31.3 17.3 3.3 5.5 5.8 3.8 3.5 3.5 2.4 1.7 1.1 0.6 0.5 0.5 0.5 0.3 0.2 0.2 0.1 0.1 0.1 0.1 0.1 0.0 0.0 0.0 0.0 0.0 0.0 0.0 0.1 0.1 0.1 0.1
12.0 11.0 2.9 1.5 3.5 6.5 5.8 9.2 19.5 21.9 16.2 7.7 3.9 5.3 4.5 3.0 2.4 2.6 2.1 1.5 0.9 0.5 0.5 0.5 0.5 0.6 0.6 0.2 0.2 0.1 0.2 0.2 0.2 0.0 0.0 0.0 0.0 0.0 0.0 0.0 0.1 0.1 0.1 0.0
12.2 9.5 2.4 1.0 1.1 3.1 7.9 8.9 6.4 12.5 10.2 7.0 5.8 4.3 3.4 2.0 2.1 2.2 2.5 1.5 1.2 1.1 0.5 0.6 0.6 0.7 0.4 0.3 0.2 0.1 0.2 0.2 0.3 0.3 0.1 0.0 0.0 0.1 0.1 0.1 0.1 0.1 0.1 0.0
12.2 11.3 3.9 1.7 1.9 2.5 4.8 6.4 10.6 18.1 16.5 9.6 5.6 4.5 5.0 3.7 2.8 2.4 2.4 2.8 1.4 1.3 0.7 0.8 0.8 0.7 0.5 0.4 0.3 0.2 0.2 0.1 0.2 0.2 0.1 0.0 0.1 0.0 0.1 0.3 0.1 0.1 0.0 0.1
10.1 13.0 9.1 5.2 7.1 7.5 7.3 10.2 13.6 15.3 13.2 12.0 8.1 6.0 4.9 3.9 3.0 2.8 2.4 2.5 1.9 1.8 1.5 1.4 1.1 1.0 0.5 0.7 0.4 0.3 0.3 0.4 0.3 0.2 0.1 0.3 0.0 0.2 0.2 0.4 0.3 0.2 0.2 0.1
10.2 14.0 12.8 7.0 3.1 3.1 5.7 9.5 12.0 17.9 14.2 9.0 8.8 6.7 3.4 2.7 2.3 2.3 2.4 2.5 2.3 1.9 1.8 1.8 1.8 1.1 0.7 0.9 0.8 0.7 0.4 0.4 0.3 0.4 0.2 0.2 0.3 0.3 0.3 0.5 0.5 0.4 0.4 0.3
14.7 19.1 19.6 12.2 7.1 5.0 7.6 8.3 9.7 11.7 13.1 10.4 9.4 6.6 2.8 2.0 1.9 1.8 1.8 1.9 2.2 2.0 1.8 1.9 1.9 1.0 1.0 1.1 1.1 1.1 1.0 0.7 0.5 0.4 0.2 0.2 0.4 0.4 0.5 0.4 0.3 0.5 0.5 0.4
13.9 20.5 15.4 13.8 10.6 10.1 10.2 7.8 7.8 12.2 16.9 10.9 7.0 5.6 4.0 3.4 3.1 2.5 2.0 2.1 2.5 2.3 2.1 2.1 1.9 1.6 1.5 1.4 1.1 1.1 0.9 1.0 1.0 0.9 0.5 0.8 1.0 0.8 0.9 0.7 0.9 1.3 1.9 2.0
14.8 18.4 8.3 4.7 4.4 5.4 6.7 6.0 6.2 8.7 9.3 9.1 5.5 4.7 5.0 4.2 3.9 3.5 2.9 2.3 2.5 3.0 3.1 2.8 2.0 1.8 1.8 1.5 1.2 1.2 1.2 1.4 1.4 1.6 1.3 1.1 1.2 1.7 1.3 1.1 1.3 1.6 2.3 3.0
15.1 16.7 8.3 4.9 3.0 3.9 5.2 4.0 3.8 4.6 4.9 5.7 4.8 5.4 4.2 3.4 3.0 3.1 3.0 2.9 3.1 3.7 3.9 3.6 2.5 2.2 2.2 2.2 2.0 1.6 1.7 1.6 1.6 1.8 1.7 2.0 1.8 2.4 2.4 1.4 1.5 1.7 2.4 3.0
14.6 15.0 13.4 8.7 3.8 6.0 8.5 5.2 4.3 4.6 4.7 5.3 6.2 6.0 4.6 3.9 3.7 3.7 3.4 3.5 3.3 3.6 3.8 3.6 3.2 3.0 2.7 2.5 2.6 3.0 2.1 1.5 1.6 1.9 2.0 2.4 2.7 2.8 2.7 2.5 2.3 2.7 3.3 3.3
12.2 13.9 17.3 13.1 9.5 13.5 6.5 3.9 3.7 4.0 5.0 4.9 5.4 5.3 4.6 4.6 4.5 4.0 3.8 3.9 3.8 3.6 3.4 3.6 3.5 3.3 2.8 2.4 2.7 2.2 2.4 2.0 1.6 1.6 2.1 2.2 2.5 3.2 2.8 2.4 2.5 2.8 2.4 2.3
6.5 13.4 19.9 17.2 12.8 7.2 3.8 3.4 4.5 5.3 6.4 5.3 5.1 4.8 4.1 3.8 3.7 4.1 3.5 3.4 3.9 3.6 3.4 3.3 3.0 3.2 2.5 2.1 2.6 2.4 2.1 2.0 1.8 2.0 2.0 2.3 2.3 2.9 2.6 2.4 2.2 2.1 1.9 1.9
6.6 11.9 20.5 18.3 14.3 7.7 4.3 2.7 2.9 4.3 7.3 4.9 4.4 4.8 4.3 4.3 6.2 5.9 4.3 3.9 3.5 3.0 2.8 2.9 2.8 2.6 2.1 1.8 2.2 1.9 1.9 1.9 2.0 2.0 2.2 1.9 1.9 2.3 1.9 1.9 1.8 1.5 1.1 2.2
11.7 17.2 19.4 15.2 12.2 5.4 3.6 2.6 2.2 7.4 9.5 4.7 4.4 4.9 4.9 6.0 7.3 6.2 4.8 4.2 3.7 3.5 3.0 2.9 2.7 2.8 2.7 2.1 1.8 1.9 1.6 2.1 1.9 1.7 1.8 1.5 1.5 1.5 1.2 1.7 1.4 1.6 1.9 2.0
7.8 11.0 11.8 11.3 12.8 6.8 3.3 3.6 6.4 7.8 4.1 4.0 4.4 4.4 4.9 4.8 4.4 4.3 4.3 4.0 3.3 3.3 2.8 2.6 2.7 2.9 2.9 2.4 2.2 2.0 1.9 2.0 1.7 2.1 2.3 1.9 1.7 1.5 1.5 2.1 2.0 1.7 1.9 1.9
5.8 7.4 8.1 8.0 7.0 5.1 4.1 4.7 4.7 3.8 3.8 3.5 3.9 4.1 4.4 4.6 4.4 4.4 4.1 3.9 3.6 3.2 2.8 2.5 2.8 3.1 2.6 2.4 2.2 2.4 2.0 2.0 2.1 2.0 1.9 1.9 1.6 1.7 1.8 2.1 2.5 2.3 2.5 3.2
4.6 4.1 5.6 5.5 4.4 3.8 3.5 3.5 3.3 3.1 3.6 3.5 3.7 4.3 4.2 4.8 4.6 4.3 4.2 3.9 3.6 3.4 2.5 2.6 2.7 3.1 3.1 2.6 2.7 2.4 2.3 2.3 2.4 2.4 1.7 1.4 1.5 1.5 1.6 1.8 2.5 3.3 3.5 4.8
4.1 4.0 5.3 4.9 3.4 2.9 2.6 2.7 3.1 3.4 3.2 3.2 3.3 3.8 4.1 4.2 4.2 4.2 4.2 4.1 4.0 3.5 3.1 2.8 3.0 3.2 3.4 2.8 2.6 2.4 2.9 3.1 3.0 2.3 2.0 1.7 1.5 1.5 1.7 1.7 2.2 3.3 3.6 5.7
3.2 4.2 5.3 4.9 3.1 3.7 3.1 2.4 2.5 3.1 3.2 3.1 3.2 3.5 3.3 3.4 4.0 3.9 3.8 3.7 3.8 3.5 3.4 3.1 3.5 3.8 3.6 3.5 3.3 3.1 3.4 3.7 4.1 3.2 2.5 2.3 2.3 1.8 1.8 2.0 2.3 1.8 2.6 2.9